Regional Weather Roundup
Issued by NWS

Home | Current Version | Previous Version | Text Only | Print | Product List | Glossary On
Versions: 1 2 3 4 5 6 7 8 9 10 11 12 13 14 15 16 17 18 19 20 21 22 23 24 25 26 27 28 29 30 31 32 33 34 35 36 37 38 39 40 41 42 43 44 45 46 47 48 49 50
000
ASUS43 KFSD 191202
RWRSD

WEATHER ROUNDUP FOR SOUTH DAKOTA
NATIONAL WEATHER SERVICE SIOUX FALLS SD
600 AM CST MON FEB 19 2018

NOTE: "FAIR" INDICATES FEW OR NO CLOUDS BELOW 12,000 FEET WITH NO
SIGNIFICANT WEATHER AND/OR OBSTRUCTIONS TO VISIBILITY.


SDZ001>005-009-010-012>017-191300-
NORTHWEST AND NORTH CENTRAL SOUTH DAKOTA

CITY           SKY/WX    TMP DP  RH WIND       PRES   REMARKS
BUFFALO          N/A      2  -3  80 NE14      29.93R WCI -16
FAITH            N/A      3   1  91 N16       30.02R WCI -16
MOBRIDGE       LGT SNOW   8   1  73 N13       30.06S WCI  -8
$$

SDZ012>016-024>037-041>051-057-063-072>074-191300-
SOUTHWEST AND SOUTH CENTRAL SOUTH DAKOTA

CITY           SKY/WX    TMP DP  RH WIND       PRES   REMARKS
RAPID CTY ARPT LGT SNOW   2  -2  83 N14       29.96F FOG     WCI -16
PIERRE         FLURRIES   7   4  87 N17       30.05R WCI -12
CUSTER         CLOUDY     1  -5  75 NE7       29.67F WCI -12
PHILIP         LGT SNOW   6   2  83 N14       30.05R FOG     WCI -11
PINE RIDGE     LGT SNOW   4  -1  80 N12       29.92F WCI -12
SPEARFISH      LGT SNOW   0  -6  78 E7        29.91F WCI -13
WINNER         LGT SNOW  10   5  80 N18       29.97S WCI  -8
$$

SDZ004>011-016>023-039-040-191300-
NORTHEAST SOUTH DAKOTA

CITY           SKY/WX    TMP DP  RH WIND       PRES   REMARKS
ABERDEEN       LGT SNOW   8   3  80 N21G28    30.08S WCI -12
WATERTOWN      LGT SNOW   9   5  84 N21       29.95R VSB 1   WCI -11
BROOKINGS      FLURRIES  11   6  81 N21G29    29.89R WCI  -8
SISSETON         N/A      9   4  80 N21       30.06R WCI -11
$$

SDZ017-020-022-023-036>040-048>070-191300-
SOUTHEAST SOUTH DAKOTA

CITY           SKY/WX    TMP DP  RH WIND       PRES   REMARKS
SIOUX FALLS    FRZ DRZL  16  11  80 N18       29.85R WCI   0
HURON          LGT SNOW  10   6  84 N24G31    30.01R FOG     WCI -10
CHAMBERLAIN    FLURRIES  11   7  82 NW21G29   29.99F WCI  -8
MITCHELL       CLOUDY    13   8  81 N23       29.96R WCI  -6
YANKTON        MIX PCPN  17  14  88 N18       29.86R WCI   1
$$

ABBREVIATIONS USED IN REMARKS
   TC - TEMPERATURE IN CELSIUS
  WCI - WIND CHILL INDEX
   HX - HEAT INDEX
  VSB - VISIBILITY





USA.gov is the U.S. government's official web portal to all federal, state and local government web resources and services.